Meteor 1-10 Rocket - Orbit

View from above orbital plane
View from above orbital plane
View from above satellite
View from above satellite

Ground track
Ground track

The orbit data is extracted from the following two-line orbital elements,

1 05732U 71120B   13143.06732725  .00000004  00000-0 -47456-5 0    34
2 05732 081.2511 118.5213 0050168 260.1089 166.5861 14.05754972130128
Epoch (UTC): 23 May 2013 01:36:57
Eccentricity: 0.0050168
inclination: 81.2511°
perigee height: 837 km
apogee height: 910 km
right ascension of ascending node: 118.5213°
argument of perigee: 260.1089°
revolutions per day: 14.05754972
mean anomaly at epoch: 166.5861°
orbit number at epoch: 13012

The dashed part of the orbit path shows where the satellite is in the earth's shadow,  

Developed and maintained by Chris Peat, Heavens-Above GmbH. Please read the updated FAQ before sending e-mail. Imprint. DLR